Location: Jackson Park
(37.2862°N, 79.9123°W)
Time: 20:47:44
(UTC+00:00)

Vanguard 2 - Pass Details

Date: 15 May 2026
Orbit: 553 x 2894 km, 32.9° (Epoch: 6 June)

Event Time Altitude Azimuth Distance (km) Brightness Sun altitude
Rises 12:37:35 0° 281° (WNW) 6,466 11.7 27.3°
Reaches altitude 10° 12:42:33 10° 276° (W) 5,203 11.3 28.3°
Maximum altitude 12:55:29 42° 213° (SSW) 2,474 10.2 30.9°
Drops below altitude 10° 13:03:52 10° 145° (SE) 3,395 11.4 32.5°
Sets 13:06:25 0° 138° (SE) 4,092 11.8 33.0°
